Member area
Imprimable
Mons, 25/03/2018, BEL - Semi-Marathon de Mons
List of reports > 21km - Result
Search: Page: [1]
125 Entries
 
Complains are not accepted anymore. Results are final.
PlaceNrNameAgeNATTeamTimeTkmMoy.ScrCity
1.1261FVANDROOGENBROECK Virginie47BELCABW/TRAINING71:21:513:54 15.4020BRAINE-L'ALLEUD
2.380FDYRKOLBOTN Ann Kristin45BELVIDAR, SPORTSKLUBBEN1:35:364:34 13.18155MONS
3.577FLHOTEL Laurence45BEL1:36:114:35 13.10165NATOYE
4.890FTURCK Pascale45BELNAC / ESM1:37:574:40 12.86193LOBBES
5.739FPIERRARD Christelle48BELDECATHLON1:43:144:55 12.21287COLFONTAINE
6.1243FSPILLIAERT Anne44BELVERTIGO1:43:344:56 12.17292ERBISOEUL
7.621FMAROT Caroline44BELSMAC1:45:425:02 11.92335FLAWINNE
8.1244FSPINEUX Sophie46BELJCPMFFLV1:45:535:03 11.90340SART SAINT LAURENT
9.589FLOYEN Magali41BELPFA1:46:075:04 11.87345NALINNES
10.483FHERLIN Nathalie48BELSMURFIT KAPPA CARTOMILLS1:47:045:06 11.77361HAM-SUR-HEURE
11.1210FRASQUIN Hélène41BELSOUTIEN AUX SANS-PAPIERS/1:47:225:07 11.74375MONS
12.547FLECLERCQ Véronique49BELOBJ1:47:235:07 11.73378BOUSSU
13.1036FBONGIOVANNI Virginie46BELACLO1:47:435:08 11.70386LA LOUVIÈRE
14.989FGIULIANO Letizia43BELJCPMF CHAPELLE1:48:225:10 11.634037134
15.75FBODSON Laurence43BELJOGGING CLUB BAUDOUR1:48:285:10 11.62409THIEUSIES
16.137FCARAVAGGIO Lucia43BELDECATHLON1:48:445:11 11.59418QUAREGNON
17.1141FGRAZZI Sophie42BEL1:48:545:12 11.57426JEUMONT
18.1102FDEWEZ Dominique42BELASFA1:49:115:12 11.54437FEIGNIES
19.1156FLABEYE Delphine42BELOBJ1:49:145:13 11.54440BLAUGIES
20.1191FNITA Doris40BELOBJ1:49:195:13 11.53443HORNU
21.1254FURBAIN Valérie48BEL1:49:215:13 11.52444DOUR
22.1213FRENARD Isabelle41BELJCPMF FONTAINE L'ÉVÊQUE1:50:295:16 11.40467FONTAINE L'ÉVEQUE
23.991FPANEPINTO Valérie46BELJCPMF CHAPELLE1:51:185:18 11.32489BINCHE
24.518FKERTZ Christiane48BELCELTIC DIEKIRCH1:51:595:20 11.25508MOESDORF
25.907FVANGREVELING Catherine41BELZATAC1:52:185:21 11.22520MARCINELLE
26.199FCOSSEMENT Valerie41BEL1:52:445:23 11.18532WATTRELOS
27.376FDUVAL Magali47BELLEGALOPROMAIN1:53:325:25 11.10555BAVAY
28.268FDELESTREES Sylvie45BELASPPT ST QUENTIN1:54:165:27 11.03575HARGICOURT
29.1007FTHOMAS Genevieve45BELLA PROVINCE1:54:255:27 11.01580NIMY
30.1002FJANUTH Frances42BELLES BOULETTES1:55:125:30 10.94602BINCHE
31.141FCARLIER-ANSSEAU Stephanie44BEL1:55:325:31 10.91614LA LONGUEVILLE
32.1200FPERMENTIER Delphine40BELJCPMF MSG1:55:575:32 10.87625NIL ST VINCENT
33.18FLIENARD Sarah43BELDELCAMBE1:57:315:36 10.72667FRAMERIES
34.1035FBOGAERT Christel48BEL1:57:465:37 10.70677EUUIES
35.12FVAN MALLEGHEM Stephanie42BELRAM1:58:105:38 10.66687WÉPION
36.1297FLIGOT Annick48BELARCH’1:58:225:39 10.65692HAMOIS
37.817FSAUVAGE Valérie42BELVALÉRIE SAUVAGE1:58:235:39 10.64693LANQUESAINT
38.777FRENARD Ann-Catherine46BELVERTIGO1:58:355:39 10.63700MASNUY-SAINT-JEAN
39.964FYAHIATENE Marjorie40BEL1:58:415:40 10.62702JEUMONT
40.690FNOEL France45BEL1:58:575:40 10.59710HOUTAING
41.263FDELCAMBRE Daphne47BEL1:59:075:41 10.58718GOUY-LEZ-PIETON
42.575FLEYSSENS Valérie47BEL1:59:165:41 10.57721WATERLOO
43.320FDETISTE Vanessa41BELCOACHING ZONE1:59:275:42 10.55729BRAINE-L'ALLEUD
44.622FMARQUE Caroline41BELCAROLINE MARQUE1:59:315:42 10.54731MONS
45.1215FRIBAUVILLE Nathalie42BEL1:59:355:42 10.54732LESSINES
46.507FJEANNESSON Nathalie48BELBAIL RUN1:59:475:43 10.52739EVREHAILLES
47.627FMARTINOT Sandrine43BELBORNE TO RUN1:59:485:43 10.52740LILOIS
48.475FHAUW Sabrina40BEL1:59:515:43 10.51741DUNKERQUE
49.389FFAMEREE Caroline40BEL1:59:525:43 10.51743ERPENT
50.174FCLERFEYT Delphine43BELOBJ2:00:025:43 10.50746BLAREGNIES
51.536FLAMBRET Christelle42BELTHEODO TEMPO2:00:315:45 10.46764GENLY QUEVY
52.650FMESURE Christelle46BELJOGGING CLUB BRACQUEGNIES2:00:355:45 10.45766STREPY-BRACQUEGNIES
53.224FCZAJKOWSKI Catherine49BELZATAC2:01:055:46 10.41779MONT SUR MARCHIENNE
54.876FTOFFANIN Natacha47BELQUÉVY RUN2:01:185:47 10.39783SARS LA BRUYÈRE
55.722FPARIS Marysia41BEL2:01:335:48 10.37786NIVELLES
56.1082FDELADRIER Ines43BELLES AMIS JOGGEURS2:02:105:50 10.317927350
57.911FVANLOO Vanessa40BELZATOPEK NAMUR2:02:175:50 10.30796NAMUR
58.936FVITSKENS Fanny43BELAC BELOEIL2:03:155:53 10.22810SIRAULT
59.696FNOTEZ Nathalie47BELNAC2:03:195:53 10.22814VIEUX-GENAPPE
60.420FFURUYA Crystal40BEL2:03:255:53 10.21818IXELLES
61.1193FNUYTTEN Magali47BELSOUTIEN AUX SANS-PAPIERS/2:03:445:54 10.18826COUILLET
62.538FLAPAGLIA Berenice42BEL2:04:165:56 10.14838THULIN
63.157FRENAUX Cecile40BELVERTIGO2:04:265:56 10.13843MONS
64.1161FLECOMTE Isabelle43BELAUCUN2:04:295:56 10.12846MONS
65.986FCUVELIER Natacha41BEL2:05:436:00 10.02867
66.342FDOUCET Maryse47BELGALOP ROMAIN BAVAISIEN2:06:216:01 9.97878GOMMEGNIES
67.495FHOTAUX Fanny41BELOCR BELGIUM WALLONIA2:06:496:03 9.94887ATH
68.960FWITS Julie40BELLES ECLATÉS PÉRUWELZIENS2:07:086:04 9.91888BURY
69.490FHIRSCHFELD Doris41BELRAPTOR2:07:526:06 9.86897BOIS-DE-VILLERS
70.1285FDOYEN Francoise46BEL2:08:186:07 9.82909SIRAUT
71.1284FMOULIN Maryline47BEL2:08:186:07 9.82910SIRAUT
72.785FREYBROECK Laurence46BELLAURENCE REYBROECK2:08:466:08 9.79919WIERS
73.63FBERTINCHAMPS Céline42BELOBJ2:09:096:09 9.76925MONS
74.566FLENCLU Isabelle46BELTEAM VERTIGO2:09:346:11 9.73931CASTEAU
75.1271FVITSKENS Lara45BEL2:09:406:11 9.72933SARS-LA-BUISSIÈRE
76.687FNOEL Anne-Cecile43BEL2:10:046:12 9.69938BRAINE-LE-COMTE
77.1122FFICHEROULLE Laurence43BELJE COURS À INCOURT2:10:116:12 9.68940OPPREBAIS
78.170FCHRISTEL D'Angelo40BELAMIS JOGGEURS2:11:106:15 9.61950BOUSSU
79.4FDAVISTER Cristelle45BELRAM2:11:326:16 9.58955FLORÉE
80.1214FREYBROECK Sandrine41BEL2:11:436:17 9.57958BRASMÉNIL
81.469FHANOTEAU Isabelle46BEL2:12:496:20 9.49976LIGNY
82.865FTESTONE Marianne46BEL2:12:516:20 9.49977HYON
83.1275FWERREBROUCK Mahaut49BEL2:13:176:21 9.45978GIVRY
84.1187FMURA Nadia49BELJC BAUDOUR2:13:546:23 9.41982BAUDOUR
85.580FLIBERT Sabine49BELJCBAUDOUR2:13:546:23 9.41983SAINT GHISLAIN
86.1251FTONDEUR Laurence42BELEL BINDE À MICKEY2:14:156:24 9.39994LEMBEEK
87.272FDELHAYE Estelle42BEL2:16:186:30 9.241019JEUMONT
88.350FDUBOIS Ingris44BEL2:16:496:31 9.211023ECAUSSINNES-D’ENGHIEN
89.237FDAS Laetitia41BEL2:16:576:32 9.201024JAMBES
90.1212FREGHEM Sophie41BELROLAND & CO2:17:046:32 9.191025SIRAULT
91.232FDAMME Christine44BEL2:17:106:32 9.191030SOMBREFFE
92.13FDASCOTTE Maryvonne42BELDELCAMBE2:17:306:33 9.161031FRAMERIES
93.1066FCURTO Elena48BELROLAND & CO2:17:546:34 9.141036SIRAULT
94.828FSERVAIS Isabelle41BELACLO2:19:246:39 9.041046RESSAIX
95.646FMEIRHAEGHE Ann41BELLES TROTTINEURS DE SOIGNI2:19:576:40 9.001054SOIGNIES
96.955FWILMART Maite40BELOSGA2:22:006:46 8.871073ASQUILLIES
97.679FNEGEL Maryline48BELMA&VA2:22:016:46 8.871074SOMZEE
98.988FDEMOLS Esther42BEL2:22:106:47 8.861075QUAREGNON
99.668FMORELLI Linda46BELDECATHLON2:22:136:47 8.861081WASMUEL
100.999FHUGE Isabelle47BELLES AMIS JOGGEURS2:22:136:47 8.861082BAUDOUR
101.987FFRANCHIN Silvana40BEL2:22:136:47 8.861083BOUSSU
102.548FLECOCQ Laurence44BELLES AMIS JOGGEURW DE SAIN2:22:136:47 8.861084QUAREGNON
103.541FLASSOIE Sylvie48BELVERTIGO2:22:366:48 8.841088MONTIGNIES-LEZ-LENS
104.1229FSAVIO Sophie40BEL2:23:096:49 8.801092HAINIJ
105.1195FPARÉE Hermione45BELZATAC CHARLEROI2:23:336:51 8.781097FARCIENNES
106.16FHORLAIT Nathalie45BELDELCAMBE2:23:366:51 8.781098HON-HERGIES
107.871FTHIRY Veronique42BEL2:24:056:52 8.751101AMPSIN
108.400FFLAMENT Bénédicte42BELDOUDOU RUNNERS2:24:236:53 8.731103MONS
109.557FLEGRAND Julie41BELMOHA2:24:476:54 8.701106SPIENNES
110.714FPANAG Jasmin43BEL2:24:576:55 8.691108WAVRE
111.792FRIVES Barbara40BEL2:25:126:55 8.681111BOUSSOIS
112.333FDI ANTONIO Carmela47BELCARMELA DI ANTONIO2:26:166:58 8.611116ANGRE
113.564FLEMAHIEU Anne-Sophie42BELLES AMIS JOGGEURS SAINT G2:28:027:03 8.511124MONS
114.1239FSOETENS Valerie45BELLES AMIS JOGGEURS DE SAIN2:28:227:04 8.491127SAINT-GHISLAIN
115.574FLEURIS Vinciane40BEL2:29:387:08 8.4211315100
116.1204FPIRSON Anne-Françoise46BELSOUTIEN AUX SANS-PAPIERS/2:31:327:13 8.321134MONS
117.273FDELHAYE Isabelle47BELTEAM ROCKET DS2:32:037:15 8.291138DOUR
118.463FHALLEUX Nathalie40BELARCH2:32:547:17 8.241140CINEY
119.30FANDERLIN Mélissa40BELCC RUNNING TEAM2:32:597:18 8.241141BLAUGIES
120.838FSOMVILLE Odile42BEL2:34:157:21 8.171145HERCHIES
121.511FJONCKERS Caroline41BELJCPMF SOMBREFFE2:37:397:31 7.991155LIGNY
122.624FMARTINE Vercaigne48BEL2:40:557:40 7.831160STAMBRUGES
123.397FFILAFERO Magali44BEL3:10:369:05 6.611164MONT SAINT ALDEGONDE
DNF359FDUCORON Isabelle48BELLES AMIS JOGGEURSGRANDGLISE
DNF362FDUFOUR Nancy48BELLES AMIS JOGGEURSHAUTRAGE
DNF: did not finish; DSQ: disqualified; Speed in km/h
Page: [1]